• Processing (Info)

  • MPEC 2020-C79 : 2014 SN363

    The following Minor Planet Electronic Circular may be linked-to from your own Web pages, but must not otherwise be redistributed electronically.

    A form allowing access to any MPEC is at the bottom of this page.


    Read MPEC 2020-C78 Read MPEC 2020-C80


    M.P.E.C. 2020-C79                              Issued 2020 February 4, 19:35 UT
    
         The Minor Planet Electronic Circulars contain information on unusual
             minor planets and routine data on comets.  They are published
        on behalf of Division F of the International Astronomical Union by the
              Minor Planet Center, Smithsonian Astrophysical Observatory,
                              Cambridge, MA 02138, U.S.A.
    
                 Prepared using the Tamkin Foundation Computer Network
    
                                  MPC@CFA.HARVARD.EDU
                URL https://www.minorplanetcenter.net/    ISSN 1523-6714
    
                                   2014 SN363                                
    
    
    Additional Observations:
         K14Sa3N  C2014 09 25.23259 01 17 45.30 -15 04 41.8          23.4 gUEC079W84
         K14Sa3N  C2014 09 25.23533 01 17 45.29 -15 04 41.9          22.9 iUEC079W84
         K14Sa3N  C2014 09 25.24235 01 17 45.25 -15 04 42.2          22.9 rUEC079W84
         K14Sa3N  C2014 11 21.19377 01 13 02.98 -15 17 44.0          23.1 rUEC079W84
         K14Sa3N  C2014 12 13.13150 01 11 56.46 -15 10 57.0          22.9 rUEC079W84
         K14Sa3N  C2014 12 22.08427 01 11 41.95 -15 06 17.1          22.8 iUEC079W84
         K14Sa3N  C2014 12 24.11116 01 11 39.80 -15 05 05.2          22.7 iUEC079W84
         K14Sa3N  C2015 10 07.18906 01 21 59.17 -14 02 47.3          22.9 rUEC079W84
         K14Sa3N  C2015 10 07.19043 01 21 59.16 -14 02 47.5          22.8 iUEC079W84
         K14Sa3N  C2015 10 07.19181 01 21 59.16 -14 02 47.4          23.4 gUEC079W84
         K14Sa3N  C2015 11 20.10905 01 18 21.66 -14 11 06.8          22.9 zUEC079W84
    
    Observer details:
    W84 Cerro Tololo-DECam.  Measurers P. H. Bernardinelli, G. Bernstein, M. Sako.
    
    Orbital elements:
    2014 SN363
    Epoch 2020 May 31.0 TT = JDT 2459000.5                  Williams
    M  34.54155              (2000.0)            P               Q
    n   0.00326205     Peri.  267.51505     +0.74688225     +0.53512373
    a  45.0272493      Node    59.85182     -0.26259375     +0.78272452
    e   0.1951433      Incl.   27.15986     -0.61091032     +0.31778125
    P 302              H    7.3           G   0.15           U   4
    Residuals in seconds of arc
    140917 W84  0.0   0.0     140925 W84  0.1+  0.0     141224 W84  0.1+  0.0
    140917 W84  0.0   0.0     140925 W84  0.0   0.1-    151007 W84  0.0   0.1+
    140917 W84  0.1-  0.0     141121 W84  0.0   0.1-    151007 W84  0.1-  0.1-
    140918 W84  0.0   0.1+    141213 W84  0.0   0.0     151007 W84  0.1+  0.0
    140925 W84  0.0   0.0     141222 W84  0.1-  0.0     151120 W84  0.0   0.0
    
    Ephemeris:
    2014 SN363               a,e,i = 45.03, 0.20, 27                 q = 36.2405
    Date    TT    R. A. (2000) Decl.     Delta      r    Elong.  Phase     V
    2020 01 05    01 36 29.8 -09 30 14  38.3513 38.4428    94.6     1.5    23.3
    ...
    2020 01 20    01 36 34.3 -09 20 27  38.6044 38.4486    80.2     1.4    23.4
    ...
    2020 01 28    01 36 46.2 -09 14 27  38.7359 38.4517    72.5     1.4    23.4
    ...
    2020 02 03    01 36 59.2 -09 09 39  38.8309 38.4541    66.8     1.4    23.4
    2020 02 04    01 37 01.7 -09 08 50  38.8463 38.4544    65.9     1.3    23.4
    2020 02 05    01 37 04.3 -09 08 01  38.8616 38.4548    65.0     1.3    23.4
    ...
    2020 02 11    01 37 21.8 -09 02 58  38.9508 38.4572    59.4     1.3    23.4
    ...
    2020 02 19    01 37 50.1 -08 56 01  39.0611 38.4603    52.0     1.2    23.4
    ...
    2020 03 05    01 38 56.8 -08 42 40  39.2355 38.4661    38.7     0.9    23.3
    
    Gareth V. Williams           (C) Copyright 2020 MPC           M.P.E.C. 2020-C79
    


    Read MPEC 2020-C78 Read MPEC 2020-C80


    MPEC number:

    Enter an MPEC number in one of the following forms:

    • 1997-B01 (the full form)
    • J97B01 (the packed version of the full form)
    • B01 (the abbreviated form)